Temperature
19 19 19 19 19 18 19 19 19 18 18 18 18 18 18 18 18 18 19 19 19 19 19 19 18 18 18 18 18 18 18 18 18 18 18 18 18 18 18 18 18 18 18
19 19 19 18 18 18 19 19 19 18 18 18 18 18 18 18 18 18 18 19 19 19 19 19 19 18 18 18 18 18 18 18 18 18 18 18 18 18 18 18 18 18 17
19 19 19 18 18 18 18 18 18 18 18 18 18 18 18 18 18 18 18 19 19 18 18 19 18 18 18 18 18 18 18 18 18 18 18 18 18 18 18 18 18 18 18
19 19 19 18 18 18 18 18 19 18 18 18 18 18 18 18 18 18 18 18 18 18 18 18 18 18 18 18 18 18 18 18 18 18 18 18 18 17 17 18 18 18 17
19 19 19 18 18 18 18 18 19 19 18 18 18 18 18 18 18 18 18 18 18 18 18 18 18 18 18 18 18 18 18 18 18 18 18 18 18 17 17 18 17 17 17
19 19 18 18 18 18 18 18 19 19 19 18 18 18 18 18 18 18 18 18 18 18 18 18 18 18 18 18 18 18 18 18 18 18 18 18 18 18 17 17 18 17 17
19 19 18 18 18 18 18 18 19 19 18 19 18 18 18 18 18 18 18 18 18 18 18 18 18 18 18 18 18 18 18 18 18 18 18 18 18 18 17 17 17 17 17
19 19 18 18 19 18 18 18 18 19 18 18 18 18 18 18 18 18 18 18 18 18 18 18 18 18 18 18 18 18 18 18 18 18 18 18 17 17 17 17 17 17 17
19 19 19 18 18 18 18 18 18 18 19 18 18 18 18 18 18 18 18 18 18 18 18 18 18 18 18 18 18 18 18 18 18 18 18 18 17 17 17 17 17 17 17
19 19 19 19 19 19 18 19 18 18 18 18 18 18 18 18 18 18 18 18 18 18 18 18 18 18 18 18 18 18 18 18 18 18 18 17 17 17 17 17 17 17 17
19 19 19 19 19 19 19 19 18 18 18 18 18 18 18 18 18 18 18 18 18 18 18 18 18 18 18 18 18 18 18 18 18 18 18 18 18 17 17 17 17 17 17
19 19 19 19 19 19 19 19 19 18 18 18 18 18 18 18 18 18 18 18 18 18 18 18 18 18 18 18 18 18 18 18 18 18 18 18 18 17 17 17 17 17 17
19 19 19 19 19 19 19 19 19 18 18 18 18 18 18 18 18 18 18 18 18 18 18 18 18 18 18 18 18 18 18 18 18 18 18 18 18 18 17 17 17 17 17
19 19 19 19 19 19 19 19 19 19 18 18 18 18 18 18 18 18 18 18 18 18 18 18 18 18 18 18 18 18 18 18 18 18 18 18 18 18 18 18 17 17 17
20 19 19 19 19 19 19 19 19 19 19 18 18 18 18 18 18 18 18 18 18 18 18 18 18 18 18 18 18 18 18 18 18 18 18 18 18 18 18 18 17 17 17
20 20 19 19 19 19 19 19 19 19 19 18 18 18 18 18 18 18 18 18 18 18 18 18 18 18 18 18 18 18 18 18 18 18 18 18 18 18 18 18 17 17 17
20 20 20 19 19 19 19 19 19 19 19 18 18 18 18 18 18 18 18 18 18 18 18 18 18 18 18 18 18 18 18 18 18 18 18 18 18 18 18 18 18 17 17
20 20 20 19 19 19 19 19 19 19 19 18 18 18 18 18 18 18 18 18 18 18 18 18 18 18 18 18 18 18 18 18 18 18 18 18 18 18 18 18 18 18 17
21 20 20 20 20 19 19 19 19 19 19 18 18 18 18 18 18 18 18 18 18 18 18 18 18 18 18 18 18 18 18 18 18 18 18 18 18 18 18 18 18 18 18
21 20 20 20 20 20 19 19 19 19 19 18 18 18 18 18 18 18 18 18 18 18 18 18 18 18 18 18 18 18 18 18 18 18 18 18 18 18 18 18 18 18 18
21 20 20 20 20 20 19 19 19 19 19 19 18 18 18 18 18 18 18 18 18 18 18 18 18 18 18 17 18 18 18 18 18 18 18 18 18 18 18 18 18 18 18
21 21 20 20 20 20 20 20 19 19 19 19 19 18 18 18 18 18 18 18 18 18 18 18 18 18 18 17 17 17 18 18 18 19 18 18 18 18 18 18 18 18 18
21 21 21 20 20 20 20 19 19 19 19 19 19 19 19 18 18 18 18 18 18 18 18 18 18 18 18 18 18 17 17 18 18 18 18 18 18 18 18 18 18 18 18
22 21 21 21 21 20 20 20 19 19 19 19 19 19 19 18 18 18 18 18 18 18 18 18 18 18 18 18 18 18 17 17 17 18 18 18 18 18 18 18 18 18 18
22 22 21 21 21 20 20 20 20 20 20 19 19 19 19 19 18 18 18 18 18 18 18 18 18 18 18 18 18 18 17 17 17 17 18 18 18 18 18 18 18 18 18
22 22 22 21 21 20 20 20 20 20 20 19 19 19 19 19 19 18 18 18 18 18 18 18 18 18 18 18 18 18 17 17 17 17 17 18 18 18 18 18 18 18 18
Wind_Speed
2 1 5 9 10 10 10 11 13 16 18 19 20 22 22 22 21 21 21 21 21 20 20 19 18 18 18 17 17 16 16 16 15 15 16 16 16 16 16 16 15 14 15
1 3 7 9 10 11 11 12 14 17 18 19 20 22 22 22 22 21 20 20 20 20 19 18 18 18 17 17 17 16 16 15 15 15 15 15 15 15 15 15 14 13 15
3 4 8 9 10 11 11 13 15 16 18 19 20 21 22 21 21 21 20 20 20 20 19 18 18 18 17 17 17 16 15 15 14 14 14 12 12 14 14 14 14 14 14
5 5 7 10 11 11 11 13 15 16 17 18 19 20 21 21 21 21 20 19 19 19 19 18 18 18 17 17 16 15 15 14 14 14 11 10 10 13 13 13 14 14 13
5 5 8 10 10 11 11 12 14 15 17 18 18 19 20 20 20 20 19 19 19 18 18 17 17 17 16 16 15 14 14 13 13 11 10 10 9 12 13 13 13 13 12
5 5 7 10 10 10 11 12 13 15 16 16 17 18 19 19 19 19 19 19 18 18 17 17 16 16 15 14 14 13 13 12 11 9 9 9 8 11 12 12 12 12 12
4 3 5 8 9 9 11 12 13 14 14 15 16 17 17 17 17 17 18 18 18 17 16 15 15 14 14 13 12 12 11 11 9 9 8 7 8 10 11 11 11 11 11
4 3 3 7 8 9 10 11 12 13 14 14 15 16 16 16 16 16 16 17 17 16 15 14 14 13 13 12 11 10 10 10 9 8 7 7 9 10 10 9 10 10 10
4 3 2 4 6 8 9 10 11 12 13 14 14 15 15 15 16 16 15 16 16 15 14 13 13 12 11 10 10 9 8 8 7 6 6 6 9 9 10 9 9 10 10
3 2 2 3 4 5 6 9 10 11 12 13 13 13 14 14 14 15 14 14 14 14 13 12 12 11 10 9 8 7 7 7 7 6 5 6 9 9 10 10 10 9 9
2 1 1 2 3 4 4 7 8 9 10 11 11 12 11 9 9 10 12 12 12 13 12 11 11 10 8 7 7 6 5 5 6 5 5 7 8 9 9 9 9 9 9
3 2 1 1 2 3 4 4 5 6 7 7 7 8 8 8 7 8 9 10 11 11 10 10 9 8 6 5 4 4 4 4 5 4 6 7 8 9 9 9 9 9 9
4 3 3 2 2 3 2 3 3 4 5 6 7 7 7 6 5 5 4 5 6 7 6 6 5 5 4 3 2 2 3 3 4 4 6 7 8 9 9 9 10 10 10
5 4 3 3 3 3 3 3 3 4 4 4 5 6 6 4 4 3 3 3 4 4 4 3 3 3 3 2 2 1 2 2 3 4 6 8 9 10 10 10 10 11 11
6 5 4 4 4 4 3 2 3 4 4 4 5 5 6 4 4 4 3 3 3 4 3 2 2 2 1 1 1 2 2 3 4 5 6 8 10 11 11 11 11 12 12
7 6 5 5 5 5 4 3 3 4 4 5 4 5 6 5 4 4 4 3 3 3 4 3 2 1 0 1 1 2 2 3 4 5 6 7 10 11 11 12 12 12 12
7 6 6 6 5 5 5 4 4 4 5 4 5 6 7 6 6 5 4 3 3 4 4 3 2 1 1 1 1 2 2 3 4 5 6 6 7 9 11 12 13 13 13
7 6 6 6 6 6 5 4 3 4 5 4 5 6 7 7 7 5 4 3 4 4 3 3 2 1 1 1 1 1 2 2 4 5 5 6 7 7 9 12 13 13 14
7 7 7 6 7 6 5 4 4 4 4 4 5 6 7 7 8 6 4 4 4 4 3 3 3 2 2 1 1 2 2 2 3 4 5 6 7 7 8 10 12 13 14
7 7 7 6 6 6 5 4 3 3 3 4 5 6 7 7 8 7 5 5 5 4 3 3 3 2 2 1 1 1 2 2 2 3 4 4 5 7 8 9 9 11 14
7 7 7 7 6 6 4 4 4 3 3 3 4 6 8 8 8 7 4 4 5 4 4 4 3 2 1 1 1 2 2 2 2 2 3 3 4 6 8 9 9 9 9
9 8 8 8 7 7 6 4 3 3 3 3 3 4 7 8 9 8 6 5 5 4 4 4 4 2 2 2 2 1 2 3 2 2 2 3 4 4 6 8 9 9 9
10 10 10 9 8 7 6 4 3 3 2 2 2 3 4 7 8 7 7 6 5 5 5 5 5 5 3 2 2 3 2 2 2 2 2 2 3 3 4 5 7 8 9
12 10 9 9 8 7 7 6 6 5 4 4 3 3 3 5 6 7 6 6 6 5 5 5 5 4 4 3 2 2 2 2 1 2 2 2 3 3 4 4 5 6 8
11 10 9 8 8 7 7 8 7 5 4 3 3 4 3 3 4 6 6 6 6 5 6 5 5 5 4 4 4 3 2 2 2 2 3 3 2 2 3 4 4 5 6
8 8 9 8 7 7 7 7 8 7 6 5 4 4 3 3 3 5 6 6 6 5 6 6 6 6 5 5 4 4 4 3 3 3 4 3 3 2 2 3 3 4 5
Wind_Direction
272 232 122 115 115 113 113 119 124 132 136 136 138 139 138 136 135 134 133 132 131 130 128 128 128 127 127 127 125 123 121 122 122 121 123 124 124 122 120 118 118 117 118
175 145 125 120 117 113 111 114 121 128 132 133 136 138 137 136 136 136 135 133 132 130 129 128 127 127 126 125 124 124 124 124 126 125 125 126 126 125 124 123 122 123 123
94 112 125 124 120 116 114 116 122 126 129 132 135 137 137 137 137 137 135 134 132 130 130 127 125 127 125 124 124 125 126 125 125 123 120 119 126 128 128 128 127 126 126
98 103 116 116 116 114 114 116 122 127 129 132 135 137 138 138 138 137 135 135 133 131 130 128 127 127 124 124 124 124 126 125 124 121 116 119 126 132 132 132 132 129 129
88 98 113 116 113 112 115 120 123 127 130 132 135 137 139 138 139 139 138 137 135 132 130 128 127 127 125 124 124 125 126 126 125 120 121 121 125 134 136 136 136 134 132
88 97 115 117 119 117 116 120 124 127 130 133 135 137 138 138 138 138 139 138 134 133 131 130 129 128 128 128 128 128 129 130 124 121 125 128 134 140 141 141 140 139 138
91 94 117 115 116 118 118 122 125 129 131 133 135 137 139 139 140 141 140 138 136 136 136 133 130 130 130 130 129 129 130 131 127 128 132 138 144 146 146 146 146 145 145
100 90 105 118 117 118 122 124 123 127 129 134 137 139 142 142 143 143 143 140 137 137 136 134 132 133 131 130 127 126 130 132 133 135 139 148 154 155 154 153 154 156 157
85 76 73 103 117 123 127 129 128 130 131 135 136 141 144 145 146 146 144 143 143 142 141 137 135 134 132 130 127 124 130 137 136 140 148 158 162 163 165 165 164 166 165
83 69 48 70 100 115 126 132 133 133 135 138 140 141 146 146 146 147 147 148 148 148 146 142 139 140 136 131 129 128 130 134 141 148 156 167 174 177 176 175 174 174 171
124 75 68 61 88 107 125 138 136 136 137 138 140 141 136 131 137 143 147 152 153 152 150 147 145 144 135 131 131 128 123 135 151 158 170 179 185 189 188 186 184 183 181
187 188 143 127 120 122 136 122 119 125 123 120 119 120 117 120 131 138 150 156 158 156 153 150 147 141 125 119 122 118 117 141 156 170 183 190 195 199 200 197 196 194 190
190 188 175 167 142 127 117 117 113 117 114 115 120 120 119 117 123 125 132 149 148 144 137 138 130 119 119 122 119 125 144 153 176 190 197 201 203 207 209 205 203 202 198
177 189 181 166 145 137 129 121 116 122 124 128 133 132 130 128 129 131 131 135 123 122 119 120 115 115 120 135 145 164 191 198 200 205 209 212 212 212 214 212 207 207 207
183 190 184 173 161 145 133 141 130 130 137 140 139 145 147 143 142 144 138 131 129 133 133 138 131 126 125 162 197 201 231 233 222 217 216 219 218 217 218 217 214 213 213
189 191 181 175 168 150 153 156 144 151 152 149 159 165 162 160 150 142 142 143 152 158 158 158 158 153 171 203 233 231 227 224 224 219 219 223 223 220 221 222 220 220 221
188 184 177 176 163 161 167 171 162 164 162 164 176 179 176 173 166 155 149 160 175 169 163 154 143 139 182 214 243 245 229 227 224 223 222 225 227 225 225 226 225 224 226
177 176 183 184 169 171 169 164 162 166 167 176 180 183 186 183 177 166 164 179 182 168 161 156 155 146 170 199 251 263 247 236 231 231 227 226 227 230 231 232 230 229 230
179 177 180 179 170 173 168 159 159 160 171 182 181 185 191 189 184 177 178 185 174 165 169 179 166 165 180 202 245 267 261 248 244 238 233 231 226 228 231 235 236 235 236
176 175 178 177 172 165 156 144 144 153 173 178 184 191 190 190 187 182 182 183 172 165 175 177 174 170 178 187 258 308 299 277 260 246 244 238 231 233 234 236 239 242 241
173 173 181 182 177 165 158 161 166 184 184 180 191 194 194 194 189 182 180 175 173 178 187 180 170 171 186 150 101 348 331 306 273 256 249 243 241 239 235 235 239 243 247
182 183 187 191 182 180 178 168 163 159 172 181 184 184 193 192 189 189 183 185 180 178 181 182 171 168 187 168 150 110 332 328 317 275 252 242 248 245 241 239 237 240 244
188 190 195 194 186 180 166 144 129 112 107 145 175 189 193 191 192 191 187 186 185 184 192 195 183 176 188 200 179 162 176 244 298 309 271 255 257 251 251 244 240 242 241
196 193 191 189 185 177 166 166 168 177 190 196 185 190 188 188 189 190 187 187 188 191 196 202 193 185 177 198 204 204 198 185 200 301 309 287 272 260 255 251 245 244 239
193 190 189 184 185 179 175 176 178 189 193 172 160 176 190 188 189 190 189 188 192 197 201 205 195 193 191 193 197 189 195 207 205 213 270 290 294 273 257 249 244 240 239
188 186 185 181 188 184 183 185 186 188 181 171 177 185 195 194 195 195 194 194 196 199 204 208 201 199 204 205 207 200 192 190 198 201 234 259 275 281 267 254 245 242 240
Height
1481 1479 1479 1479 1480 1480 1480 1479 1480 1482 1485 1489 1492 1495 1499 1502 1505 1507 1511 1514 1517 1520 1522 1525 1527 1530 1532 1534 1537 1539 1541 1543 1546 1547 1549 1550 1552 1553 1554 1556 1557 1558 1560
1482 1481 1481 1481 1482 1482 1483 1482 1483 1484 1487 1490 1494 1497 1501 1504 1507 1510 1513 1516 1519 1522 1524 1527 1529 1531 1533 1536 1538 1541 1543 1545 1547 1549 1550 1552 1553 1555 1556 1558 1559 1560 1561
1483 1482 1483 1483 1484 1485 1485 1486 1486 1488 1490 1493 1496 1499 1503 1506 1509 1512 1515 1518 1521 1524 1526 1529 1530 1533 1535 1538 1540 1542 1545 1547 1548 1550 1552 1553 1555 1556 1558 1559 1560 1562 1563
1485 1484 1485 1486 1486 1487 1488 1488 1489 1491 1493 1496 1499 1502 1505 1508 1511 1514 1517 1520 1523 1526 1528 1531 1533 1535 1537 1540 1542 1544 1546 1548 1550 1552 1553 1555 1556 1558 1559 1561 1562 1563 1564
1488 1488 1488 1489 1489 1490 1490 1491 1492 1494 1496 1498 1501 1504 1507 1510 1513 1516 1519 1522 1525 1528 1530 1533 1535 1537 1540 1542 1544 1546 1548 1550 1552 1553 1555 1556 1558 1559 1561 1562 1563 1564 1566
1490 1490 1491 1491 1492 1493 1493 1494 1495 1497 1499 1501 1504 1506 1510 1513 1516 1519 1521 1524 1527 1530 1532 1535 1537 1539 1542 1544 1546 1548 1550 1552 1553 1555 1556 1558 1559 1561 1562 1563 1564 1566 1567
1492 1493 1493 1494 1495 1495 1495 1496 1498 1499 1502 1504 1506 1509 1512 1515 1518 1521 1524 1527 1529 1531 1534 1537 1539 1541 1544 1546 1548 1550 1552 1554 1555 1556 1558 1559 1561 1562 1563 1564 1565 1567 1568
1494 1495 1496 1497 1497 1498 1498 1499 1500 1502 1504 1506 1508 1510 1513 1516 1519 1523 1526 1529 1531 1533 1536 1538 1541 1543 1545 1548 1550 1551 1553 1555 1556 1558 1559 1560 1562 1563 1564 1565 1566 1567 1569
1497 1498 1498 1499 1500 1500 1501 1502 1504 1505 1507 1509 1511 1513 1516 1519 1521 1524 1527 1530 1533 1535 1538 1540 1542 1545 1547 1549 1551 1553 1554 1556 1557 1559 1560 1562 1563 1564 1565 1566 1567 1568 1569
1499 1500 1500 1501 1502 1503 1504 1505 1506 1508 1510 1511 1513 1515 1518 1521 1524 1526 1529 1532 1534 1537 1539 1542 1544 1546 1548 1551 1553 1554 1556 1557 1559 1560 1561 1562 1563 1564 1565 1566 1567 1568 1569
1501 1501 1502 1503 1504 1505 1506 1508 1509 1510 1512 1514 1516 1518 1520 1523 1525 1528 1531 1533 1536 1538 1541 1543 1545 1548 1550 1552 1554 1555 1557 1558 1560 1561 1562 1563 1564 1565 1565 1566 1567 1568 1569
1502 1503 1504 1505 1506 1507 1508 1509 1510 1512 1514 1516 1518 1520 1522 1524 1527 1530 1532 1535 1537 1539 1542 1544 1546 1548 1551 1553 1555 1556 1558 1559 1560 1561 1562 1563 1564 1564 1565 1566 1567 1568 1569
1503 1504 1505 1506 1507 1509 1510 1511 1511 1512 1515 1518 1520 1522 1524 1526 1529 1531 1533 1536 1538 1540 1543 1545 1547 1549 1551 1554 1555 1557 1558 1559 1560 1561 1562 1563 1563 1564 1565 1566 1567 1568 1569
1504 1506 1507 1508 1509 1510 1512 1513 1512 1513 1517 1520 1522 1524 1526 1528 1530 1532 1535 1537 1539 1541 1544 1546 1548 1550 1552 1554 1556 1557 1558 1559 1560 1561 1562 1562 1563 1564 1565 1565 1566 1567 1568
1505 1507 1508 1509 1511 1512 1513 1515 1516 1517 1520 1522 1524 1525 1527 1529 1531 1533 1535 1537 1540 1543 1545 1547 1549 1551 1553 1555 1556 1557 1558 1559 1560 1561 1561 1562 1562 1563 1564 1565 1565 1566 1567
1506 1508 1509 1511 1512 1514 1515 1517 1518 1520 1522 1524 1525 1527 1529 1531 1532 1534 1536 1539 1542 1544 1546 1548 1550 1552 1553 1555 1556 1557 1558 1559 1560 1560 1561 1561 1562 1562 1563 1564 1564 1565 1566
1506 1508 1510 1512 1513 1515 1517 1518 1520 1522 1523 1525 1526 1528 1530 1532 1534 1536 1537 1540 1542 1544 1546 1548 1550 1552 1553 1554 1556 1557 1557 1558 1559 1559 1560 1560 1561 1561 1562 1562 1563 1564 1565
1507 1509 1511 1512 1514 1516 1518 1520 1521 1523 1524 1526 1528 1529 1531 1533 1535 1537 1539 1541 1543 1545 1547 1549 1550 1552 1553 1554 1555 1556 1557 1557 1558 1558 1558 1559 1559 1560 1560 1561 1561 1562 1563
1507 1509 1511 1513 1514 1516 1518 1520 1522 1523 1525 1527 1528 1530 1532 1534 1536 1537 1539 1541 1543 1545 1547 1548 1550 1551 1552 1554 1554 1555 1556 1556 1556 1557 1557 1557 1558 1558 1558 1559 1560 1560 1561
1507 1509 1511 1513 1514 1516 1518 1520 1522 1523 1525 1526 1528 1530 1532 1534 1536 1538 1539 1541 1543 1545 1546 1548 1549 1551 1552 1553 1553 1554 1554 1554 1555 1555 1555 1556 1556 1557 1557 1557 1558 1558 1559
1505 1507 1509 1511 1513 1515 1517 1519 1520 1522 1524 1526 1528 1530 1532 1534 1536 1537 1539 1541 1542 1544 1545 1547 1548 1550 1551 1552 1552 1552 1553 1553 1553 1553 1554 1554 1554 1555 1555 1555 1556 1556 1557
1503 1505 1508 1510 1512 1514 1516 1518 1520 1522 1524 1526 1527 1529 1531 1533 1535 1537 1538 1540 1541 1543 1544 1546 1547 1548 1549 1550 1551 1551 1551 1552 1551 1551 1552 1552 1552 1553 1553 1553 1553 1554 1554
1500 1502 1505 1508 1510 1512 1514 1517 1519 1521 1522 1524 1526 1528 1530 1532 1533 1535 1537 1539 1540 1541 1543 1544 1545 1546 1547 1549 1549 1551 1551 1550 1550 1550 1550 1550 1550 1551 1551 1551 1551 1551 1551
1496 1500 1503 1506 1508 1510 1513 1515 1517 1518 1520 1522 1524 1527 1529 1530 1532 1533 1535 1537 1538 1540 1541 1543 1543 1545 1546 1547 1548 1548 1549 1549 1549 1548 1548 1548 1548 1548 1548 1548 1548 1548 1548
1494 1497 1501 1504 1506 1509 1511 1513 1515 1517 1519 1521 1523 1525 1527 1528 1530 1532 1533 1535 1536 1537 1539 1540 1541 1542 1543 1544 1545 1546 1546 1547 1547 1547 1546 1546 1546 1546 1546 1546 1546 1545 1545
1491 1494 1497 1500 1503 1506 1509 1511 1512 1514 1517 1519 1521 1523 1525 1526 1528 1530 1531 1533 1534 1535 1536 1537 1538 1539 1540 1541 1542 1543 1543 1543 1544 1544 1544 1543 1543 1543 1543 1543 1543 1543 1543